Theta_e
297 297 297 298 298 298 297 297 298 298 300 301 302 306 311 312 311 309 307 305 307 313 315 309 309 315 312 307 304 305 306 306 306 306 306 306 307 309 310 307 309 309 306 305 305 305 307 306 303 304 304 306 307 306 306 306 307 310 311 310 311 312 311 310 310 310 308 306 303 302 302 303 305 306 305 306 309 311 311 311 311 311 310 309 310 310 311
297 297 297 298 298 298 298 297 298 299 299 300 302 309 314 311 310 312 308 304 308 313 312 310 313 315 313 312 309 305 304 305 307 306 306 306 307 310 310 306 305 305 305 306 305 304 306 305 303 303 304 306 307 307 306 308 311 313 313 312 310 308 310 310 309 309 308 307 307 306 306 306 307 307 305 304 307 310 311 310 309 309 309 311 311 311 311
296 297 297 297 298 298 297 297 298 299 299 300 303 308 311 308 309 312 308 305 309 311 309 310 314 314 315 316 312 309 307 306 306 306 305 304 305 308 308 304 304 305 305 307 306 304 305 306 304 305 305 306 307 307 306 307 311 314 314 313 309 307 310 310 308 308 308 307 307 308 308 307 306 306 305 304 307 310 310 309 308 308 308 308 310 311 310
296 296 296 297 297 297 297 297 298 299 299 300 302 303 306 308 309 311 311 308 308 306 303 307 311 312 313 313 308 309 311 307 305 305 303 303 303 305 305 303 305 307 306 310 310 306 304 305 307 308 307 307 306 306 306 307 309 312 313 311 310 309 310 311 309 309 308 307 307 306 306 307 307 307 306 305 307 309 308 308 308 308 307 307 309 310 310
296 296 296 296 297 297 297 297 297 299 299 300 303 302 304 308 307 306 309 309 309 308 305 304 308 308 309 310 307 308 310 308 306 305 303 303 304 305 304 303 305 307 309 312 312 307 305 306 308 309 306 305 304 304 305 305 307 310 309 309 311 310 308 310 311 309 307 306 306 304 303 305 306 306 307 307 307 309 308 308 308 308 307 306 309 311 310
296 295 295 296 296 297 297 297 297 298 299 300 304 305 304 306 305 302 302 304 306 308 306 304 306 307 307 307 307 307 309 309 308 305 303 304 304 304 305 303 303 305 306 309 309 308 307 307 308 308 304 305 306 304 303 304 304 306 306 307 311 309 307 308 309 308 307 305 304 303 303 304 305 305 307 307 307 308 307 308 309 308 307 307 311 315 312
295 295 295 295 296 297 296 296 296 297 298 299 302 304 303 304 305 302 302 304 304 305 304 304 306 307 308 308 306 305 307 307 304 301 303 307 305 303 307 305 302 302 305 308 310 308 306 306 307 307 305 305 306 304 304 303 302 302 304 307 308 307 306 308 307 307 307 305 305 305 304 305 305 305 307 306 306 307 307 308 309 308 308 307 308 314 314
295 295 295 295 295 296 296 296 296 297 298 298 299 299 300 301 302 302 303 306 305 304 304 306 308 307 306 307 305 303 304 304 302 300 302 307 306 303 306 305 301 302 304 307 307 304 303 304 305 306 306 305 305 305 304 303 302 302 303 306 306 304 306 308 306 305 305 304 304 304 304 305 305 305 306 305 305 306 305 306 306 305 306 306 305 309 310
295 294 295 295 295 296 296 296 295 296 297 298 297 296 296 297 297 298 302 306 304 304 303 303 306 306 304 305 305 303 302 301 301 300 299 301 303 302 304 304 301 302 304 305 303 300 300 302 302 304 305 302 303 304 302 302 303 303 303 306 307 304 304 306 305 303 303 302 302 303 304 304 304 305 306 305 305 306 305 305 305 305 306 305 306 307 306
295 294 294 295 295 295 296 296 295 295 296 296 295 295 295 296 296 296 299 302 301 302 303 302 303 304 302 302 303 302 300 299 300 301 299 298 298 299 301 303 303 303 304 303 300 298 298 299 299 300 301 299 300 301 300 300 302 302 304 305 305 304 303 303 303 302 301 302 303 304 304 303 303 304 306 307 307 307 306 305 306 306 306 306 306 305 306
294 294 294 294 294 295 296 295 294 294 295 295 295 294 293 294 296 295 298 301 300 299 302 302 303 303 300 299 301 300 300 299 299 301 301 299 298 298 299 302 304 303 301 299 297 296 296 297 297 297 298 299 299 299 298 299 299 300 302 302 303 304 303 301 302 301 300 302 304 304 303 302 302 302 304 305 306 306 307 307 306 306 306 304 304 305 305
294 294 294 294 294 295 295 295 294 293 294 295 294 294 293 293 294 295 299 301 300 300 301 300 299 300 298 298 300 300 300 299 298 299 301 300 299 297 298 300 302 302 299 296 295 296 296 297 297 298 297 298 299 298 298 299 299 299 300 300 302 303 302 301 301 300 300 301 302 303 303 303 302 301 302 303 303 303 305 305 305 305 305 304 303 304 304
294 294 294 294 294 294 294 295 295 294 293 294 294 293 294 294 295 296 298 301 302 301 301 299 298 298 298 299 300 301 300 299 299 299 300 300 299 298 297 297 298 298 296 295 296 299 300 300 300 300 299 298 299 299 298 299 300 299 298 299 301 302 302 301 301 300 300 300 301 303 303 302 302 303 303 303 303 303 304 303 304 303 303 304 305 305 305
294 294 294 294 293 294 294 294 295 294 293 293 294 294 294 294 295 296 297 300 301 297 296 299 299 298 298 299 299 300 300 300 300 299 299 299 298 297 297 296 296 296 295 295 298 301 301 300 300 300 299 299 300 300 299 299 299 299 299 298 299 301 301 301 301 301 300 300 301 301 302 302 303 304 304 302 303 304 303 303 303 302 301 302 304 304 304
294 294 294 294 293 294 294 294 294 294 293 292 293 293 293 293 295 295 295 297 300 297 295 297 297 297 298 298 298 300 300 299 299 298 297 298 298 296 296 296 296 295 295 297 299 301 300 299 300 300 299 299 299 299 299 299 298 298 298 298 298 300 301 301 301 300 299 300 301 302 303 303 302 303 302 301 302 302 302 302 302 301 300 300 301 302 302
294 294 294 294 294 294 294 294 294 294 293 293 292 292 293 293 294 294 294 296 298 297 296 296 295 296 297 296 296 297 298 297 297 297 297 298 297 295 296 296 295 296 297 298 299 300 300 299 299 299 299 299 299 299 299 299 299 298 298 298 299 299 299 299 301 300 300 301 302 302 302 302 302 302 302 301 301 301 301 303 303 301 299 300 300 300 301
293 293 293 294 294 294 294 294 294 294 294 293 292 291 291 292 293 294 294 296 296 296 295 295 295 296 296 296 295 296 296 296 296 296 297 297 295 295 296 296 295 296 298 299 300 299 299 299 298 299 299 298 298 299 299 299 299 299 299 299 300 299 298 298 300 301 300 301 302 301 300 301 302 302 301 301 300 300 302 305 304 300 299 300 300 300 301
293 293 293 294 294 294 294 294 294 294 294 293 292 292 291 291 292 293 294 295 295 295 294 294 295 295 295 295 295 295 295 295 295 295 295 295 295 295 295 295 296 296 297 299 299 299 299 298 298 299 299 298 298 299 299 298 299 299 299 300 300 299 297 297 298 299 300 300 301 301 300 301 302 302 301 300 301 302 304 304 300 298 298 300 300 301 302
293 293 293 293 294 294 294 294 294 294 294 293 293 292 291 291 291 292 293 294 294 294 293 293 294 295 294 294 294 294 294 294 294 295 295 295 295 295 293 294 295 295 296 297 297 297 297 298 298 298 299 299 298 298 298 298 299 299 299 299 299 297 297 297 297 298 298 298 300 299 299 300 301 301 300 300 301 302 302 300 298 297 298 300 301 302 303
293 293 293 293 294 294 294 294 294 293 294 293 293 292 292 292 291 291 292 293 293 294 294 293 294 295 295 294 295 295 294 294 294 295 295 296 295 294 294 295 295 296 296 296 296 296 296 297 298 298 298 299 298 297 297 297 297 298 298 298 299 298 297 297 296 296 296 297 298 299 298 299 300 300 299 299 299 299 298 297 297 299 299 300 301 303 303
293 293 293 293 293 293 294 294 294 293 293 293 293 292 292 292 291 291 292 292 292 294 294 294 294 294 294 294 294 295 295 295 295 295 295 295 294 294 295 296 295 296 296 295 295 296 296 296 297 296 297 298 297 295 296 296 295 296 296 297 297 297 297 296 296 296 297 297 298 299 298 298 299 298 297 298 298 297 297 297 297 298 299 300 300 301 301
293 293 293 293 293 293 294 294 294 294 293 293 293 293 293 292 292 292 292 292 292 293 293 294 294 294 294 294 294 294 294 294 294 295 295 295 295 294 295 297 296 296 296 295 295 295 295 295 296 295 295 296 295 295 295 295 294 295 295 295 296 296 296 296 296 296 297 297 297 297 297 297 297 297 297 298 298 297 297 297 296 297 298 299 299 299 300
293 293 293 293 293 293 294 294 294 294 293 294 293 293 293 293 292 292 292 292 292 293 292 292 293 293 294 294 294 293 294 294 294 294 294 295 295 294 295 296 296 295 296 296 295 295 296 295 295 294 295 295 295 295 295 295 294 295 295 295 295 296 295 296 296 296 296 297 296 296 296 297 296 296 297 297 297 296 296 296 296 297 298 298 299 299 299
293 293 293 293 293 293 294 294 294 294 294 294 294 293 293 293 293 293 293 292 292 293 293 293 293 294 293 293 293 293 294 294 294 293 293 294 295 295 295 295 294 295 297 297 295 295 296 295 294 294 295 295 295 295 295 294 295 295 295 295 295 295 295 295 296 296 296 296 296 296 296 296 296 296 296 296 296 296 296 296 296 297 297 297 297 297 298
294 294 293 293 293 293 294 294 294 294 294 294 294 293 293 293 293 293 293 293 292 293 294 294 294 294 293 293 293 293 293 293 293 293 293 293 294 295 295 294 294 295 296 295 294 295 295 295 295 295 295 295 295 294 294 294 294 294 294 295 295 295 294 294 295 295 295 296 296 296 296 296 296 295 296 295 295 295 295 296 296 296 296 296 296 297 297
294 294 293 293 293 293 293 294 294 295 294 294 293 293 294 294 294 294 293 292 291 291 293 294 294 293 292 293 294 293 293 293 293 293 293 293 294 294 294 294 293 294 295 295 295 296 296 295 295 296 296 295 295 294 295 295 295 295 295 295 295 295 295 295 295 295 295 295 295 295 295 295 295 295 295 295 295 295 295 295 295 295 295 295 296 297 297
294 294 293 293 293 292 292 292 293 294 294 293 294 294 294 294 294 294 294 293 291 291 292 293 294 293 292 293 293 293 293 293 293 294 294 294 293 293 293 293 294 294 295 295 295 295 295 295 295 295 295 295 295 295 295 295 295 295 295 295 295 295 294 295 295 294 294 294 294 294 294 294 295 295 295 295 295 294 295 295 295 295 295 295 296 296 297
294 294 293 294 293 292 290 291 292 294 293 293 294 294 294 294 294 294 293 293 292 291 291 291 292 293 293 293 293 293 293 293 293 294 294 294 294 293 293 293 294 294 295 296 295 295 296 296 295 294 294 294 294 295 295 294 295 295 295 295 295 295 294 294 294 294 294 294 294 294 294 294 295 295 295 295 295 294 294 294 294 294 295 295 295 296 296
294 294 294 294 293 292 290 290 292 293 292 293 294 294 294 294 293 293 293 293 293 292 292 292 293 292 292 293 293 293 293 293 293 293 293 293 293 293 293 294 294 295 296 296 295 295 295 295 294 294 294 294 294 294 294 294 294 294 294 294 295 294 294 294 294 294 294 294 294 294 294 294 294 295 294 294 295 294 294 294 294 294 295 295 295 295 296
294 293 292 292 292 291 289 290 292 292 293 292 293 294 294 294 293 294 294 293 293 293 292 292 293 292 292 293 293 293 293 293 293 293 292 292 293 292 292 294 295 295 295 295 294 294 294 294 294 294 294 294 294 293 293 293 293 293 294 294 294 294 293 294 294 294 294 294 294 294 294 294 294 294 294 294 295 295 295 294 295 295 296 296 296 296 296
294 291 290 290 291 291 290 290 291 292 293 293 293 295 295 294 294 295 295 294 293 292 290 290 292 292 293 294 293 292 293 293 292 292 292 292 292 291 291 292 294 294 294 294 293 292 292 293 294 294 294 294 294 293 294 293 293 293 293 293 293 293 293 293 293 293 293 293 293 293 294 294 294 295 295 295 295 296 295 295 295 295 296 296 296 296 297
293 290 289 290 292 293 292 291 291 292 293 294 294 294 294 294 294 295 295 294 293 291 290 292 293 292 293 294 293 291 292 292 292 291 292 293 293 292 291 292 293 294 294 294 293 292 292 293 293 293 294 295 294 293 293 293 293 293 294 293 293 293 293 293 294 294 294 294 294 295 295 295 295 295 295 295 295 296 296 295 296 296 296 296 296 297 297
292 290 290 292 294 295 294 292 292 293 293 293 293 293 293 294 295 295 294 293 292 291 291 291 291 291 291 292 292 292 292 293 293 292 292 293 292 292 292 292 292 293 293 293 293 292 291 291 292 292 293 293 292 292 293 293 294 294 294 293 293 293 293 293 294 294 295 295 295 295 296 295 295 295 295 295 295 296 296 296 296 296 296 296 296 296 296
292 290 291 293 294 294 294 293 293 293 293 293 293 292 293 294 295 294 294 293 292 291 291 290 291 292 293 292 292 292 293 293 293 292 292 292 292 291 292 292 292 292 291 291 292 291 291 291 292 292 291 291 290 291 293 294 293 293 293 293 293 293 293 294 295 295 295 295 295 295 295 295 295 294 294 294 294 294 295 295 296 296 296 296 296 296 296
292 290 291 293 294 293 293 293 293 293 293 293 292 292 293 294 294 294 294 293 291 292 293 291 291 293 294 294 293 293 292 293 293 291 291 292 291 291 291 292 292 291 291 290 290 290 290 292 292 290 289 289 291 293 294 293 293 293 293 293 293 294 294 294 295 295 295 294 294 294 294 294 294 294 294 294 294 294 295 295 295 295 295 296 296 296 296
292 291 291 294 295 294 293 293 293 293 293 292 292 292 293 294 294 293 294 293 292 293 293 291 290 291 292 292 293 292 292 292 292 291 291 291 291 290 291 291 291 291 289 289 289 289 290 291 291 290 289 290 292 293 292 292 293 294 294 294 294 293 294 295 295 294 294 294 293 294 294 294 294 294 294 295 295 295 295 295 295 296 296 296 296 295 294
292 291 292 293 295 295 293 292 292 292 292 292 292 293 294 294 294 294 293 294 293 293 292 291 291 291 291 291 291 291 292 292 291 291 291 291 290 290 290 290 291 291 289 289 290 290 290 291 292 291 291 292 292 292 292 292 294 294 294 294 294 294 294 294 294 294 293 293 293 294 294 294 294 294 294 294 294 294 295 295 295 295 295 295 294 293 292
293 292 291 292 293 294 294 292 291 291 292 292 293 294 294 293 292 293 292 292 293 293 291 291 292 291 290 291 292 292 293 292 290 290 290 290 290 289 289 289 290 290 289 289 289 289 290 290 290 291 293 293 292 292 293 293 294 294 294 294 294 294 294 294 294 293 293 293 294 294 294 293 293 293 294 294 293 293 294 294 294 294 293 292 292 292 291
293 292 291 291 293 294 293 292 291 292 292 292 292 293 292 291 292 292 291 291 293 293 293 293 293 291 291 293 293 292 292 291 291 290 290 290 291 290 289 289 289 289 289 289 289 289 291 290 288 289 292 293 292 292 293 294 294 294 294 294 294 294 294 293 293 293 294 293 294 294 293 293 294 294 293 293 292 292 292 292 292 292 292 291 291 291 291
292 290 290 291 292 292 291 291 292 293 293 292 291 292 292 291 291 292 292 293 294 294 293 293 292 291 291 293 293 292 292 291 291 290 290 290 290 289 289 289 288 288 290 290 289 289 291 290 288 289 291 292 292 292 293 294 294 294 294 294 294 294 294 294 294 294 293 293 293 293 293 293 293 293 292 292 291 291 291 291 291 291 291 290 290 290 290
291 290 290 291 292 291 291 292 292 292 292 291 291 292 292 291 290 289 291 293 295 294 291 291 293 292 291 291 292 293 292 291 290 289 290 290 290 289 290 289 287 288 291 290 288 288 290 291 291 291 291 292 292 292 293 294 294 294 294 294 294 294 294 294 294 293 293 293 293 292 292 292 292 292 292 291 291 290 290 290 290 290 290 290 290 289 289
291 291 291 291 291 291 291 291 292 291 292 292 292 291 291 290 289 289 290 291 291 291 291 292 293 293 291 291 292 292 291 290 289 289 290 290 290 289 289 288 287 289 290 289 287 288 290 292 292 292 292 291 292 292 292 293 294 293 294 294 294 293 294 294 293 293 292 292 292 292 292 292 291 291 291 291 290 290 290 290 290 290 289 289 289 289 288
291 291 291 291 291 290 290 290 291 291 292 293 292 291 290 290 290 290 290 290 290 291 292 292 292 292 291 290 291 291 290 290 290 290 290 289 289 289 288 288 289 289 288 287 288 290 291 291 291 292 292 292 292 292 292 293 293 293 293 294 294 293 293 294 293 293 292 292 292 292 291 291 291 291 291 291 290 290 290 290 289 289 289 289 288 288 288
291 291 290 290 290 290 290 290 290 290 291 292 291 290 291 291 290 290 291 291 291 292 292 291 291 291 291 290 290 290 290 290 290 290 289 289 288 289 290 290 289 287 287 287 288 289 289 289 290 291 291 292 292 292 291 291 292 293 293 294 294 293 293 293 293 293 292 292 292 291 291 291 291 291 291 291 291 290 290 290 290 289 289 289 288 288 287
292 292 291 291 291 291 290 290 291 290 291 291 290 290 291 291 290 290 291 291 291 291 291 291 290 291 291 291 290 290 289 289 289 290 289 288 288 289 289 288 287 286 286 287 288 288 288 289 291 291 291 292 293 292 290 290 292 293 293 293 293 293 293 293 293 293 292 292 292 291 291 291 291 291 290 290 290 291 290 290 290 289 289 289 289 288 288
291 290 290 291 292 291 289 290 291 290 290 290 290 290 290 290 290 290 290 290 290 291 291 291 290 291 292 291 289 288 288 289 289 289 288 288 289 289 287 286 288 289 289 289 291 291 291 291 291 291 292 293 293 291 290 290 291 292 292 292 292 292 293 293 293 292 292 292 291 291 291 291 291 291 291 290 290 290 290 289 289 289 289 289 288 288 287
290 288 289 292 293 291 289 290 291 289 289 289 290 290 290 290 290 290 289 289 289 290 290 290 290 291 290 289 288 288 288 288 289 289 287 288 289 289 287 288 290 292 291 292 294 293 291 291 292 292 293 293 293 291 290 290 291 291 291 291 292 292 292 293 292 292 292 292 292 292 291 291 291 291 291 290 290 290 289 289 289 288 288 288 287 287 287
292 290 290 293 294 292 290 289 289 289 289 289 289 289 289 288 289 290 290 289 289 290 290 290 290 290 289 288 288 288 288 288 289 289 287 287 289 290 290 290 290 288 287 289 291 291 291 291 292 293 293 293 292 291 290 291 291 291 291 291 291 291 292 292 291 291 291 291 292 292 292 291 291 291 291 290 290 289 288 288 288 287 287 287 286 286 286
291 290 290 291 292 291 289 289 289 290 290 289 288 288 288 288 289 290 290 289 289 291 291 290 290 290 289 288 288 288 288 288 289 288 287 288 290 290 289 290 291 289 286 286 288 290 291 292 292 293 294 294 293 291 291 291 291 291 291 291 291 291 292 292 291 290 290 290 290 291 291 291 291 291 290 289 288 288 287 287 287 286 286 286 286 285 285
290 290 290 291 291 290 289 288 288 290 290 289 289 289 289 289 290 290 290 289 290 291 291 290 290 290 289 288 289 289 288 288 288 288 288 289 289 288 288 289 291 290 289 287 288 290 292 291 290 291 294 295 294 292 292 291 290 290 290 290 290 291 292 291 291 290 290 289 289 289 290 290 290 289 289 288 287 287 286 286 286 285 285 285 285 285 285
290 290 289 289 290 290 290 289 290 290 290 290 290 290 289 289 290 290 290 290 290 290 290 290 290 290 290 290 290 290 288 287 287 287 288 287 286 287 289 290 289 289 290 290 289 290 290 289 288 290 292 294 295 293 292 291 291 291 290 290 290 291 291 291 291 290 290 289 289 289 289 289 288 288 287 287 287 287 286 286 285 285 285 285 285 284 284
291 290 289 289 289 289 289 289 289 289 289 290 290 289 289 290 290 290 289 289 290 290 290 290 290 290 291 291 290 288 288 288 287 288 288 287 286 287 290 291 290 290 291 291 290 289 289 289 288 289 291 293 293 293 291 291 292 292 291 290 291 292 292 291 291 290 290 290 289 289 289 288 287 287 287 287 287 287 287 286 285 284 285 284 284 284 284
Wind_Speed
33 34 34 35 34 34 36 38 37 36 33 26 20 12 2 1 2 3 14 14 1 4 2 1 1 0 1 1 1 1 1 0 0 2 2 2 1 1 1 1 1 1 1 1 2 2 1 2 0 0 1 2 1 2 4 2 2 0 0 0 0 1 1 1 3 3 2 1 0 0 1 1 1 1 1 1 1 0 1 2 0 2 2 2 2 3 2
33 33 35 35 34 34 35 37 35 32 29 23 15 6 1 1 2 2 13 13 2 4 1 2 1 1 1 2 1 0 1 1 1 1 2 2 1 1 1 0 0 1 1 1 2 1 1 1 0 0 1 1 1 2 5 2 1 1 1 0 1 1 1 1 2 3 2 2 2 2 2 1 1 0 1 0 1 3 2 1 1 2 2 2 4 4 2
33 34 35 35 35 36 36 37 34 29 26 22 11 2 1 1 0 3 9 14 6 2 0 1 1 0 1 2 2 2 1 1 2 1 1 2 0 1 1 0 1 1 1 2 2 1 1 0 0 1 1 0 0 1 5 4 2 1 1 1 1 2 1 1 3 5 5 5 4 2 1 1 1 0 1 1 2 2 2 1 2 3 1 2 3 3 1
33 34 35 35 36 37 37 38 35 27 25 21 9 2 0 1 1 2 4 8 6 2 1 1 1 1 1 1 1 1 1 1 2 1 2 1 1 1 1 0 1 1 2 1 1 2 2 1 1 2 1 1 1 2 3 3 3 3 4 3 1 1 1 2 4 6 6 6 4 1 1 3 3 2 3 2 1 1 2 2 2 3 2 3 3 1 1
33 34 35 36 37 37 37 39 35 28 25 19 7 2 3 1 1 2 2 2 3 1 2 3 2 0 0 1 1 2 1 2 2 2 2 1 1 2 2 2 1 1 1 2 1 1 2 1 1 1 0 1 1 2 1 2 5 6 4 3 1 1 1 1 2 6 5 4 3 1 0 5 6 5 5 4 3 3 3 4 3 3 2 5 4 4 4
33 33 34 36 36 37 38 39 37 29 24 17 5 2 3 2 1 1 0 1 1 1 3 4 3 2 1 1 1 2 2 2 1 1 2 2 2 1 1 3 3 1 1 2 2 1 1 1 0 1 0 1 1 2 1 2 6 5 2 2 2 1 2 2 2 4 3 3 4 3 3 5 5 5 7 6 5 6 6 6 5 6 7 7 5 8 8
32 32 34 35 35 37 38 40 38 31 22 18 14 5 2 2 1 1 1 0 1 1 3 2 1 3 3 2 2 2 2 2 1 1 2 2 3 2 0 1 4 3 1 1 2 1 0 0 0 1 1 1 1 1 1 0 2 3 2 2 1 1 2 2 3 4 4 5 5 4 4 5 5 7 8 7 6 8 8 7 4 7 9 5 3 7 9
31 32 32 33 34 36 37 39 39 33 24 23 19 8 3 2 1 2 2 1 1 1 2 1 1 2 3 2 2 2 2 3 2 2 3 2 3 3 1 1 2 2 2 2 3 1 2 2 2 1 2 0 1 2 0 1 1 3 2 1 0 1 2 1 1 4 5 5 6 6 7 8 10 10 7 5 6 7 8 6 3 4 7 4 4 8 7
30 31 31 32 33 34 35 37 38 36 29 22 13 6 6 3 1 2 1 1 3 2 2 2 1 2 2 2 2 2 3 3 1 2 3 2 2 3 2 1 1 1 4 5 3 1 2 4 3 2 2 0 1 1 0 1 1 2 1 0 0 1 1 1 0 5 5 5 8 10 7 8 11 10 6 7 9 7 5 5 5 6 8 7 7 8 6
29 30 30 30 31 32 33 34 35 35 33 23 9 4 9 5 1 2 1 0 3 2 1 1 1 1 2 2 2 2 3 3 1 1 2 3 4 3 3 1 1 2 4 4 4 5 5 7 6 3 2 2 2 2 1 1 2 1 0 0 0 1 2 1 1 4 4 4 5 6 5 7 9 5 5 10 11 8 7 6 5 8 9 7 6 5 3
28 29 29 29 29 30 31 32 33 33 33 26 12 5 8 5 1 3 1 1 2 2 0 2 2 1 3 3 2 2 4 5 3 1 1 3 5 4 2 2 2 2 2 2 5 7 7 7 5 3 3 3 2 1 1 3 4 3 2 1 0 1 2 2 2 2 3 1 2 2 4 7 4 1 1 6 9 9 10 7 3 4 5 4 4 2 3
27 27 28 27 28 28 29 30 31 30 28 25 18 13 11 5 1 1 1 2 1 2 1 2 2 1 3 4 2 2 4 4 4 2 1 2 3 4 4 5 2 2 2 5 7 5 4 2 1 2 2 2 2 2 4 5 4 3 4 4 3 3 3 2 1 2 2 1 1 3 6 5 1 2 2 4 5 6 8 3 4 4 3 5 4 2 2
26 26 26 26 26 27 27 27 29 28 25 22 22 21 19 11 2 0 2 2 1 2 2 1 1 1 3 4 3 2 2 2 2 1 1 2 3 4 5 3 2 3 6 8 6 3 1 1 1 2 2 2 2 2 4 5 3 2 3 5 4 3 3 2 1 2 1 0 3 4 3 4 3 2 2 2 2 2 2 1 4 6 5 4 3 2 2
24 24 25 26 25 25 26 25 26 27 24 22 21 22 23 18 7 1 1 1 1 1 1 1 2 3 3 4 4 3 2 3 3 2 1 1 3 4 3 2 5 6 5 3 3 1 0 0 1 1 2 1 2 2 1 1 0 1 0 3 4 4 3 2 2 3 2 2 4 3 4 6 4 1 3 2 1 2 2 1 3 5 5 4 4 4 4
24 24 24 24 24 24 24 24 24 25 24 21 18 19 23 21 12 3 0 1 1 0 1 1 2 3 3 3 4 3 2 3 2 2 1 1 1 2 2 4 8 6 1 1 1 0 1 1 1 1 1 1 1 2 1 1 1 2 2 1 3 2 1 2 3 2 1 2 4 3 4 4 1 1 2 3 2 1 2 1 2 4 5 4 4 6 6
23 23 23 23 23 23 23 23 23 23 24 21 17 17 21 21 16 7 1 0 1 1 1 1 1 1 1 1 2 3 2 2 2 2 1 1 2 4 4 5 7 5 1 1 0 1 1 1 2 1 1 2 1 0 1 0 1 1 2 3 5 3 2 1 2 2 1 3 4 4 3 2 0 1 3 3 2 2 2 3 2 2 4 4 4 6 6
22 22 22 22 23 22 22 22 22 21 23 22 18 16 18 19 17 11 3 0 1 1 0 1 1 0 1 0 1 1 1 1 1 1 1 2 3 4 6 6 5 3 2 1 1 1 1 1 1 1 1 1 0 1 0 0 0 1 1 1 3 3 2 0 3 3 2 3 4 4 3 1 0 2 4 3 1 3 4 5 2 2 5 4 3 5 6
22 21 21 22 22 22 21 21 21 20 20 21 18 15 15 17 16 11 4 0 1 1 1 2 1 1 1 0 0 1 1 1 1 0 1 2 2 3 5 5 4 3 2 1 1 1 1 1 0 1 1 1 1 1 0 1 1 1 1 2 1 1 1 0 2 2 3 3 4 3 2 1 1 2 4 1 2 3 4 4 2 4 7 5 2 4 4
21 20 21 20 20 21 21 20 21 19 18 20 19 14 13 16 16 12 6 1 1 1 1 2 1 1 1 1 0 0 0 0 1 1 0 0 1 2 3 2 1 2 2 2 2 2 1 1 1 1 1 1 1 1 1 1 0 1 1 2 1 0 1 1 1 1 1 2 3 4 3 0 1 1 3 1 2 2 2 3 3 5 7 6 3 4 4
21 20 20 20 19 20 20 20 20 19 17 19 19 15 12 14 16 13 6 1 1 1 1 1 1 1 1 0 1 1 1 1 0 0 0 1 1 1 1 0 1 2 2 2 2 2 1 1 1 1 1 1 2 2 2 1 1 1 2 3 2 1 1 2 2 1 1 2 3 3 2 1 2 3 3 1 1 2 3 5 5 4 5 6 5 4 3
21 20 20 20 19 19 19 19 19 19 18 17 19 17 13 13 13 11 5 1 1 1 1 0 1 2 2 2 2 2 2 1 1 0 0 1 2 1 1 0 1 2 2 2 2 1 1 0 1 1 1 1 1 2 2 1 2 1 1 2 3 1 1 2 1 1 1 3 3 1 1 1 1 4 5 2 0 2 5 6 6 5 5 5 4 3 4
19 20 20 20 19 18 18 18 18 19 17 17 19 18 14 13 13 12 6 1 2 2 2 3 5 5 3 1 1 2 3 3 3 2 1 1 1 1 1 1 1 0 0 1 1 1 1 0 1 1 1 1 1 1 2 2 2 2 1 1 2 1 1 3 3 2 3 4 4 5 6 4 2 2 5 5 5 6 6 7 7 7 6 4 3 4 4
19 19 19 19 18 18 17 17 17 17 16 16 18 18 13 13 15 13 6 0 1 3 3 4 4 2 2 2 3 4 2 2 3 3 3 2 1 0 1 1 0 0 1 0 0 1 0 0 1 1 1 1 0 1 1 1 2 2 2 2 3 2 2 2 4 3 4 6 5 4 7 8 6 4 5 6 7 8 7 6 6 6 7 6 5 6 6
20 19 19 18 18 17 16 16 17 16 15 14 15 14 11 11 15 14 6 1 1 1 0 2 2 1 2 5 6 3 1 3 4 5 5 4 2 1 1 1 1 0 0 1 1 1 1 1 1 1 1 0 0 1 2 2 2 1 1 3 4 2 2 2 5 5 5 4 4 5 9 10 10 9 8 7 8 7 5 4 5 6 7 8 8 8 8
20 20 20 19 18 17 16 15 15 15 14 13 11 10 9 10 14 14 8 3 2 1 1 2 1 1 5 7 4 2 4 6 7 7 8 9 9 5 1 2 1 1 1 0 1 1 1 1 1 1 2 1 1 1 1 2 1 0 2 5 5 1 2 3 5 5 6 7 8 10 12 12 10 9 8 7 8 8 6 6 6 7 8 8 9 9 9
20 20 19 19 19 18 15 14 14 13 12 10 9 9 9 10 12 12 8 4 2 1 1 1 1 5 9 7 3 6 9 9 6 6 9 11 14 12 5 1 2 2 2 1 0 1 1 1 1 2 2 1 1 2 2 2 1 1 4 6 4 1 3 5 5 6 8 9 9 10 11 10 9 9 9 7 7 10 11 9 8 9 11 11 11 11 11
21 20 20 20 20 19 15 12 12 12 9 7 7 8 9 10 12 13 11 7 2 0 2 0 2 7 11 6 6 12 14 11 7 3 6 8 11 12 9 3 1 1 1 1 0 1 1 1 1 2 1 0 1 1 2 2 2 4 6 5 1 2 6 6 5 7 7 8 9 10 10 10 10 11 14 12 9 10 12 12 12 13 13 12 13 14 14
22 21 21 21 21 19 14 10 10 11 8 4 4 6 8 10 11 13 14 12 5 1 0 1 3 6 7 5 9 15 15 13 11 6 4 2 2 6 6 4 2 1 1 1 0 1 2 1 1 1 0 1 1 1 1 1 2 4 6 4 3 4 6 6 6 8 9 11 12 11 9 10 11 13 15 15 11 11 13 15 15 16 16 14 13 14 14
23 23 23 22 21 19 14 9 8 9 7 2 2 2 4 5 7 10 13 13 8 1 1 1 2 3 4 5 10 14 16 15 12 9 8 8 6 2 2 4 3 1 1 1 1 1 1 1 1 1 0 1 2 2 1 1 2 4 5 4 3 2 3 5 7 9 11 12 12 10 10 13 15 15 15 14 12 12 15 16 16 16 16 14 12 12 13
24 26 25 23 21 18 13 7 5 6 7 3 2 1 1 1 3 9 13 13 8 2 1 1 0 1 3 5 7 11 16 16 12 10 8 7 6 5 2 2 2 1 1 1 0 1 1 0 1 1 2 1 1 1 1 2 2 4 4 4 3 3 3 5 6 8 10 11 11 11 12 15 15 15 14 13 13 13 13 13 14 15 14 14 13 13 14
26 29 28 23 19 17 11 4 4 4 6 4 2 1 1 0 5 11 13 11 6 2 2 0 1 2 3 3 3 8 15 13 9 8 6 4 5 6 4 1 1 1 1 0 0 1 0 1 1 0 1 0 1 1 2 2 3 4 3 2 2 4 6 7 7 9 11 12 12 12 13 13 12 12 12 11 14 15 13 11 14 18 19 18 17 16 16
29 30 26 20 18 15 8 2 1 1 5 8 7 5 3 3 7 10 9 6 4 2 2 1 1 1 2 3 4 8 10 7 5 5 4 2 4 6 4 3 1 0 1 1 0 0 0 0 1 0 0 1 1 1 2 2 4 7 6 3 3 6 8 10 11 11 11 11 11 11 11 10 10 11 12 13 15 17 15 13 16 19 19 18 17 16 16
30 28 22 17 15 13 8 3 2 3 7 10 9 8 6 5 5 6 5 4 3 3 3 2 1 1 2 3 3 6 7 4 2 3 3 2 3 3 2 2 1 1 2 1 0 0 1 1 0 1 1 1 1 0 2 3 6 8 7 5 6 10 12 12 12 11 10 9 8 8 9 10 11 14 16 15 15 16 16 14 14 15 15 14 14 14 14
30 26 17 11 11 12 10 7 5 6 7 7 5 8 9 6 4 4 4 3 3 3 3 2 1 0 2 2 0 4 7 4 1 2 3 3 3 2 2 2 1 1 2 2 1 0 0 0 0 0 1 1 1 1 3 4 6 7 7 8 11 14 13 12 10 9 8 7 7 8 10 12 13 14 15 14 14 15 15 14 13 13 11 11 11 12 12
29 23 13 6 7 9 9 7 6 5 5 4 3 9 9 6 4 3 4 3 2 1 1 2 1 0 2 2 0 3 6 3 1 1 2 2 3 2 1 1 1 1 1 2 1 0 0 1 0 0 0 0 1 2 2 6 9 11 11 12 14 13 11 10 9 9 8 9 10 10 11 12 13 13 13 13 14 14 14 13 12 10 10 10 11 11 9
28 20 10 4 3 3 4 4 5 5 3 4 10 12 7 3 3 2 3 4 4 2 1 1 1 1 0 1 1 3 5 3 1 1 1 1 2 2 1 1 1 1 1 1 0 0 0 0 1 1 1 1 2 2 3 8 13 14 13 13 13 11 10 10 10 10 11 12 12 11 11 12 12 11 11 12 12 12 12 13 11 10 9 8 6 5 5
26 18 9 4 2 2 2 2 4 6 9 13 13 8 3 2 1 1 2 3 4 3 2 1 0 0 0 1 1 2 3 3 1 1 1 1 2 2 1 1 1 1 1 1 1 1 1 1 1 1 1 2 3 3 4 8 10 10 10 10 10 9 8 8 9 11 12 13 13 12 12 12 12 10 10 10 10 9 10 9 7 5 4 4 6 6 7
23 16 9 4 2 1 1 1 7 13 15 11 4 1 2 2 1 1 2 2 3 3 2 1 0 0 0 1 1 1 2 2 1 1 1 1 1 1 1 1 1 1 2 1 1 1 1 1 1 1 2 2 3 4 5 7 7 6 6 7 7 7 7 8 9 10 11 11 12 12 12 12 12 11 9 7 8 8 8 7 7 8 8 8 8 8 9
21 15 9 6 2 0 2 8 14 14 9 2 2 1 1 2 1 1 2 2 2 1 1 0 1 1 2 2 2 1 0 1 1 1 1 1 1 1 1 1 0 1 1 1 0 1 2 1 1 1 2 3 4 6 7 7 6 5 5 6 7 8 8 8 8 9 9 9 10 10 10 10 10 8 6 6 7 8 8 9 10 11 11 11 11 12 12
18 12 6 2 2 6 12 14 10 4 1 1 1 1 1 1 1 1 1 1 1 0 1 1 1 2 3 3 3 1 1 1 2 2 1 0 0 1 1 1 0 1 1 1 1 1 2 1 1 2 3 5 6 7 8 7 6 6 5 6 8 10 10 10 10 10 9 9 9 9 9 8 6 6 7 7 7 8 8 9 11 12 13 14 13 13 12
13 8 4 4 9 15 17 11 4 2 1 1 1 1 1 1 1 0 1 1 1 2 1 0 0 1 2 3 2 2 1 1 0 1 0 1 1 1 0 1 1 1 1 1 1 1 1 1 1 1 3 5 6 6 7 7 7 7 6 7 9 10 11 11 11 11 10 8 7 8 9 10 11 10 9 9 9 8 8 9 11 14 15 14 13 13 13
15 13 10 11 13 13 10 5 2 1 1 1 1 1 1 0 0 0 0 0 1 1 1 1 1 1 1 2 3 2 1 1 1 1 0 1 1 0 0 1 1 0 1 1 1 1 1 0 1 2 3 6 6 5 6 7 7 7 7 7 7 9 10 10 11 11 10 9 7 8 10 12 12 11 11 11 11 10 10 11 12 13 13 12 11 12 14
17 12 8 7 6 4 2 1 1 1 1 1 1 1 1 1 0 1 1 1 1 1 1 1 1 1 0 1 1 1 0 0 0 0 0 1 0 1 1 1 1 0 0 0 1 0 0 1 1 2 5 6 5 4 5 6 7 7 7 6 7 9 10 10 11 11 11 11 10 10 11 12 12 12 12 12 12 12 12 12 12 11 11 11 12 13 15
12 6 2 1 1 1 1 1 0 1 0 0 1 1 0 1 0 0 1 1 1 1 1 1 2 2 1 0 0 0 0 0 0 0 0 0 0 1 0 0 1 1 1 1 1 1 1 2 3 3 5 5 5 4 5 5 5 6 6 7 9 9 9 11 11 9 9 10 11 11 11 11 11 11 12 12 11 11 11 11 11 10 10 11 12 14 15
6 3 2 2 2 1 0 0 1 0 1 1 1 1 1 1 1 1 1 0 1 2 2 2 2 3 2 0 0 0 0 0 0 0 0 0 0 0 1 1 0 1 1 1 1 1 1 1 2 3 4 5 6 5 5 4 5 6 6 6 8 8 8 10 10 8 7 8 9 9 9 9 9 10 11 11 10 11 10 10 9 9 10 11 12 12 13
2 1 2 1 1 1 0 0 1 0 1 1 1 1 1 1 2 2 1 1 2 3 4 3 3 3 2 0 0 0 1 0 0 1 0 1 0 1 1 0 1 1 1 1 1 2 2 2 2 3 4 6 6 5 5 4 5 5 5 5 5 6 7 9 10 8 8 8 8 8 8 8 8 9 9 10 10 11 11 11 10 10 10 11 11 11 11
1 1 2 1 1 1 0 1 1 1 1 1 1 1 1 1 2 2 2 2 2 3 3 3 2 2 2 1 0 0 0 0 0 1 0 1 1 0 1 1 1 0 1 1 2 3 3 2 2 3 4 5 5 5 5 4 4 5 4 4 4 5 7 9 9 8 7 7 7 7 7 7 7 7 8 8 9 11 11 11 11 11 11 10 10 10 11
0 1 1 1 1 1 1 1 1 1 1 1 1 1 0 1 2 3 2 2 2 2 3 2 1 1 0 0 0 1 0 0 0 1 0 0 0 1 2 1 1 1 2 3 3 2 2 1 2 3 4 4 3 4 4 5 5 5 4 3 4 5 6 7 8 7 7 7 7 6 6 6 6 6 7 7 9 10 11 10 11 11 11 11 11 12 13
1 1 1 1 2 2 1 1 2 2 1 1 1 1 1 2 3 4 3 1 2 2 2 1 1 1 1 0 0 0 0 0 1 1 1 1 0 0 0 0 2 2 2 3 3 2 2 2 2 3 4 3 3 4 5 4 4 4 3 2 2 3 4 6 8 7 7 7 7 6 6 5 5 5 6 7 7 9 10 11 12 12 12 12 12 12 13
1 1 1 2 2 2 1 0 1 2 2 1 1 2 2 2 3 3 2 2 1 2 1 1 1 1 0 1 1 0 1 1 1 1 0 1 1 1 1 2 3 3 2 3 3 3 3 2 1 2 4 4 3 4 5 4 3 3 3 1 0 1 3 5 7 8 8 8 8 7 6 5 4 5 6 6 7 9 11 12 12 12 12 13 13 13 13
1 1 1 2 3 2 1 1 2 3 3 4 4 3 2 2 3 3 2 1 1 2 1 1 1 1 1 0 0 0 1 1 1 1 1 2 2 2 2 3 4 3 3 3 3 3 3 2 2 3 4 4 3 4 5 4 3 3 3 2 1 1 2 4 6 8 8 9 9 8 7 5 4 5 6 7 8 9 9 9 9 10 11 12 13 13 12
2 1 1 2 3 3 3 3 3 3 4 5 4 2 2 3 3 2 2 1 2 2 1 1 1 1 1 2 1 1 0 0 1 0 1 2 2 3 3 4 4 3 3 4 4 3 3 3 3 4 4 4 5 5 4 4 5 5 4 3 2 2 3 4 5 6 7 8 8 7 6 6 6 7 7 7 7 6 5 5 6 8 10 10 11 12 13
Wind_Direction
7 6 5 3 2 4 8 9 7 2 1 2 0 355 21 77 286 307 355 353 185 137 29 230 129 353 253 327 248 247 357 128 326 343 4 22 38 33 54 145 169 189 187 152 171 187 194 175 174 344 127 112 161 312 322 275 205 94 57 133 128 160 183 261 270 285 307 325 344 210 182 161 167 48 64 172 176 107 255 271 173 190 188 146 198 239 183
9 7 6 5 3 2 5 9 8 5 2 359 355 353 137 16 262 283 359 3 130 161 284 210 171 333 318 5 16 332 10 51 24 11 6 5 44 76 54 128 117 86 87 105 140 178 212 171 93 73 138 136 154 323 329 329 105 66 296 184 211 246 232 238 273 291 282 237 202 204 193 179 236 346 71 199 93 96 104 98 125 231 214 175 233 241 169
10 9 7 6 4 2 5 9 9 6 2 357 358 5 221 346 253 246 356 17 56 136 226 156 144 65 44 40 22 357 14 40 14 24 47 9 37 118 71 123 92 72 81 88 85 60 22 131 117 137 137 317 243 339 342 357 47 38 30 86 229 248 197 206 250 261 252 245 249 254 248 246 274 226 194 175 122 138 175 147 177 225 200 171 226 245 87
11 10 9 8 6 3 5 9 10 9 2 356 1 46 306 6 36 300 336 18 45 81 35 50 96 120 100 71 36 16 10 355 347 33 76 22 27 63 34 356 64 64 81 111 99 50 37 53 119 136 145 255 280 333 345 6 2 12 44 52 120 171 208 224 237 251 256 261 266 328 355 277 263 256 232 186 147 186 167 163 213 206 184 198 205 225 248
11 11 10 9 8 5 5 9 11 12 5 358 3 60 33 67 60 359 330 353 21 52 38 27 22 24 101 80 29 1 333 328 348 42 61 21 32 60 42 27 35 157 135 133 145 74 42 45 104 124 150 255 284 322 334 10 347 355 26 20 47 121 256 215 212 248 256 268 268 167 199 261 260 264 250 214 193 188 175 210 208 133 202 240 193 183 224
12 12 11 11 10 7 7 9 13 16 10 7 30 103 15 46 131 3 300 316 9 16 358 10 22 22 34 91 45 14 3 3 4 14 14 12 17 33 62 39 33 42 162 148 146 137 83 33 356 164 121 313 312 352 62 21 344 354 21 1 38 156 255 200 191 248 234 222 249 221 216 250 245 246 249 234 215 200 202 221 185 160 227 251 176 182 212
12 12 12 12 11 10 9 9 15 19 20 36 61 68 346 43 81 328 333 56 99 292 320 337 50 35 25 34 45 42 32 30 18 331 349 7 11 16 110 33 28 36 31 124 120 102 175 95 316 206 165 16 335 347 68 133 341 13 39 14 59 208 259 181 188 258 251 240 246 209 211 251 248 237 238 233 230 223 224 234 199 197 240 263 160 206 224
13 12 13 13 13 13 11 11 15 19 27 48 60 49 358 41 24 330 352 41 35 325 340 7 83 28 13 26 46 60 48 29 20 8 13 359 352 8 56 40 31 53 47 70 102 54 325 341 4 178 177 43 223 234 226 175 344 15 40 44 92 235 269 112 158 265 265 262 267 241 226 248 258 255 246 232 234 235 238 242 211 221 257 256 202 229 242
14 13 14 14 14 15 14 13 16 20 29 48 62 38 13 15 281 325 358 358 358 349 357 29 50 26 19 16 18 42 41 11 354 45 39 32 23 359 317 331 21 76 64 65 72 16 299 289 300 245 205 332 240 240 317 199 299 350 48 121 76 212 243 84 205 268 260 245 257 261 261 267 262 255 247 239 231 219 222 224 196 209 237 234 221 234 247
13 14 15 15 15 17 17 16 16 20 29 45 65 25 8 360 313 10 352 267 11 2 346 18 37 81 30 358 352 38 34 356 318 133 72 54 51 7 292 264 75 68 63 47 349 317 279 264 275 268 254 293 272 246 217 210 259 298 103 285 18 181 235 221 216 267 268 234 252 281 306 289 266 236 224 243 239 229 229 225 209 213 223 229 233 245 285
14 15 16 16 17 18 18 18 18 20 29 40 55 34 5 358 346 357 344 122 27 348 337 24 31 59 15 354 348 31 31 18 18 69 94 52 35 8 3 81 97 100 82 12 311 294 273 268 277 261 256 286 285 252 215 222 238 229 198 215 166 176 236 240 212 250 266 275 351 326 268 261 261 105 231 256 251 252 252 251 257 242 239 265 277 296 353
15 15 16 17 18 19 19 19 19 22 28 34 43 39 17 4 255 314 20 95 8 350 62 46 32 19 349 349 355 7 18 15 358 338 71 51 12 2 29 45 61 88 17 328 312 287 256 264 284 228 232 280 283 219 213 227 229 208 205 217 205 182 206 217 199 227 259 359 15 250 244 251 304 30 315 270 265 269 264 273 20 9 318 303 300 319 357
15 15 16 17 17 18 20 20 20 22 24 26 34 35 25 20 37 8 36 91 25 8 35 17 5 356 345 0 7 348 352 347 314 310 65 49 19 15 30 40 11 332 324 322 327 323 252 326 329 251 252 301 293 219 218 235 230 182 196 216 207 184 181 185 181 191 204 191 195 213 275 315 302 308 337 307 297 311 266 178 52 24 350 329 325 344 14
14 15 16 16 16 17 18 19 19 19 20 22 29 33 28 25 32 61 31 69 83 358 313 294 9 3 357 8 358 332 347 357 359 40 43 23 23 11 1 340 324 317 309 312 336 8 131 332 341 275 274 315 304 258 246 274 338 71 193 212 198 180 166 177 212 204 183 220 224 238 310 305 278 307 12 333 322 6 328 231 62 29 1 358 8 11 13
13 14 15 15 15 15 16 17 17 16 16 18 26 33 29 24 23 31 144 62 86 133 20 11 357 344 350 5 1 2 21 3 355 11 345 313 2 342 309 311 318 313 260 190 296 70 138 228 209 219 252 233 230 267 286 85 75 30 15 94 150 160 176 197 223 223 165 235 260 266 279 281 264 73 343 306 255 259 289 238 113 46 12 359 3 10 7
12 13 14 13 14 14 13 14 15 14 13 14 22 33 30 22 17 17 36 110 86 99 39 348 277 292 341 2 10 24 33 355 342 344 342 359 355 332 312 311 321 331 45 83 37 111 131 223 197 188 227 202 162 8 351 42 146 129 80 88 109 103 38 134 221 241 184 221 252 248 238 250 43 304 315 323 251 212 228 235 209 52 15 349 351 1 1
11 12 13 12 12 12 11 12 13 13 11 11 17 28 30 22 15 11 14 110 59 81 28 327 233 176 20 8 40 36 24 358 4 348 339 354 342 324 322 328 341 359 18 24 48 97 131 160 178 207 214 171 199 268 228 15 292 189 152 81 106 107 60 100 230 245 213 220 251 254 246 260 325 286 312 339 149 186 234 248 250 4 337 320 330 341 344
10 10 11 10 9 9 9 9 10 11 10 8 11 21 25 21 15 13 19 76 59 95 226 302 333 59 45 56 18 5 354 336 15 331 305 337 339 325 326 333 349 3 4 28 57 53 81 94 53 245 199 87 350 284 301 48 329 313 343 350 11 67 8 276 243 252 227 224 251 264 261 238 192 281 312 339 146 196 247 261 312 327 309 305 296 292 303
8 7 8 7 7 7 8 7 6 8 7 4 5 11 18 16 14 17 26 49 72 73 296 290 298 56 49 85 184 354 13 304 333 344 344 44 10 325 297 293 336 359 10 43 62 46 56 49 20 6 344 34 45 358 345 3 338 3 352 324 313 348 333 274 220 264 246 218 258 281 287 79 110 296 298 258 206 235 278 304 305 289 292 298 278 262 265
6 6 5 6 6 6 8 7 5 5 5 1 0 2 9 12 12 14 24 64 125 2 309 269 120 75 38 61 148 152 104 72 37 28 50 25 356 337 275 133 17 355 5 42 51 44 55 52 17 2 337 25 39 10 340 316 293 315 315 303 302 321 299 265 211 240 274 225 232 265 283 70 53 342 331 331 286 321 331 320 296 271 277 282 266 249 253
5 4 3 3 4 4 6 7 5 4 5 1 357 358 4 11 10 6 4 54 151 82 41 79 331 314 288 261 243 216 200 217 289 267 212 293 315 359 62 83 354 1 20 50 66 54 64 76 14 355 341 354 350 338 346 339 318 327 323 303 303 273 262 289 274 237 250 231 217 244 323 57 38 332 316 303 306 331 324 311 298 282 270 258 245 250 255
4 4 2 1 2 2 3 5 3 4 5 1 357 358 2 9 10 4 354 306 211 245 297 300 302 307 294 240 345 303 252 252 270 258 229 273 329 33 109 213 247 227 73 81 82 73 78 106 33 2 327 313 318 337 348 322 304 335 20 292 289 303 325 297 278 258 268 273 275 292 303 311 332 308 290 290 303 314 309 297 290 290 283 262 259 282 278
1 1 360 360 0 360 0 1 360 360 2 358 355 357 0 7 11 9 6 24 223 270 291 303 310 339 65 60 9 349 302 268 275 255 229 228 307 276 213 222 258 121 171 205 70 77 107 79 39 354 303 312 346 316 314 283 272 307 324 278 275 308 343 276 260 286 302 285 273 284 296 301 306 294 274 278 288 295 299 297 295 302 304 298 294 297 293
360 358 357 358 357 356 358 358 356 357 359 355 353 360 11 16 15 15 23 58 13 340 340 352 6 61 357 329 332 347 340 311 310 292 260 231 217 296 323 202 202 249 266 229 129 98 102 92 75 288 269 226 171 288 291 276 258 269 301 281 277 310 21 295 275 291 299 286 296 315 307 304 308 308 298 289 284 280 283 295 298 301 304 302 299 296 290
357 355 354 354 353 352 353 354 354 355 357 356 360 17 33 27 18 20 33 49 34 71 86 11 21 356 340 338 345 10 346 322 306 286 260 234 223 231 7 72 87 2 12 174 145 124 138 143 154 231 247 212 229 278 260 256 269 174 250 274 279 317 23 313 284 275 275 279 289 297 294 292 294 296 295 298 300 296 287 281 283 288 291 289 285 283 283
354 354 353 350 349 349 349 351 353 354 356 2 13 31 41 34 25 27 35 44 77 103 33 326 240 341 351 359 20 6 354 344 316 264 242 233 231 238 256 336 10 18 74 102 150 173 152 106 155 215 236 207 214 239 237 250 277 235 253 271 285 298 292 290 288 286 284 283 286 291 294 291 284 282 285 286 289 294 292 285 279 283 287 289 286 283 281
350 352 351 346 344 344 344 344 347 350 359 17 32 44 52 49 42 41 37 29 32 56 11 5 255 328 339 339 350 359 4 7 359 291 236 235 237 241 248 257 298 335 120 128 35 120 124 104 201 221 246 226 206 242 259 269 269 255 262 269 249 263 282 289 293 291 287 290 298 304 304 298 291 293 297 295 289 288 287 283 281 282 284 285 285 284 282
350 349 347 342 339 338 338 335 335 344 3 38 67 63 63 58 51 47 39 31 36 122 281 276 274 311 323 323 345 0 13 21 27 49 91 108 224 234 233 215 198 218 193 182 160 150 170 225 243 215 171 190 221 246 248 259 265 261 264 254 208 252 290 300 296 294 293 293 298 301 295 289 288 290 294 297 298 291 284 280 279 280 281 281 278 277 280
347 345 342 338 335 334 332 324 316 333 358 35 159 123 59 55 47 34 22 18 26 101 199 298 286 297 317 317 331 353 11 21 28 49 69 70 68 71 196 192 184 172 129 127 134 178 192 220 219 238 292 223 230 256 239 217 243 257 265 265 241 253 293 295 291 295 293 292 295 296 288 287 288 289 291 295 297 295 291 287 282 278 278 280 277 274 277
345 344 342 339 336 334 332 317 291 319 354 19 175 204 8 45 19 3 357 358 6 43 137 13 348 304 321 311 314 342 358 5 12 22 32 46 50 38 33 172 169 134 121 119 184 208 213 195 189 269 312 259 197 240 247 236 258 270 271 269 266 280 295 288 279 278 282 287 293 291 286 286 286 287 288 285 283 286 290 291 289 286 283 282 281 280 281
346 346 345 342 340 339 337 315 265 308 6 37 95 87 53 356 331 339 341 345 359 46 116 85 326 319 328 319 313 336 342 346 356 6 9 20 21 12 15 55 124 183 182 258 285 171 185 268 222 233 316 158 155 220 252 253 271 276 258 225 250 292 297 291 282 278 283 290 290 284 280 280 280 284 286 285 286 289 288 284 286 287 284 282 283 284 283
348 349 347 345 347 352 358 356 255 3 67 79 86 79 56 323 317 328 337 348 8 61 106 51 8 358 328 319 324 331 331 333 352 2 7 26 10 360 14 45 45 338 102 113 176 158 126 243 252 285 13 61 111 210 237 235 254 269 273 269 288 305 306 304 301 298 296 294 290 286 284 282 282 291 295 295 296 295 290 284 285 286 284 281 279 278 278
351 352 349 349 356 7 21 41 62 104 112 105 87 62 34 357 335 341 354 8 31 77 98 73 47 33 306 293 323 345 342 336 356 6 14 29 3 343 359 37 39 26 43 51 296 317 80 127 95 25 30 43 67 191 237 237 247 265 279 290 304 312 313 309 306 305 303 301 294 288 289 292 295 298 299 299 299 298 294 290 286 283 282 280 278 281 284
352 352 350 356 12 25 41 61 84 111 125 119 77 28 14 14 18 7 5 21 51 70 68 64 98 263 307 289 317 13 1 351 336 359 4 8 3 351 336 343 10 62 23 3 336 344 61 107 146 123 91 75 72 230 246 259 269 282 293 299 307 313 313 309 308 310 311 308 297 288 288 293 296 300 304 306 305 303 300 296 291 287 287 286 286 291 292
352 351 350 359 20 36 55 69 75 91 113 111 16 353 355 12 34 15 360 12 30 54 42 32 56 97 342 342 356 2 357 354 339 330 331 342 3 18 354 326 358 71 26 351 335 317 21 58 30 306 30 82 240 236 271 309 314 315 313 309 312 315 312 306 310 314 313 310 307 304 303 303 304 307 310 310 308 306 304 299 292 288 287 287 292 298 302
351 351 350 347 1 35 61 56 44 56 60 339 331 334 343 29 58 22 6 28 43 83 127 45 33 149 95 346 293 327 343 353 358 294 290 312 348 20 59 9 1 31 16 339 326 75 44 28 325 309 328 345 299 281 320 326 321 316 313 313 314 317 314 311 315 317 316 316 316 315 315 315 314 314 312 309 309 308 304 298 294 289 289 297 316 341 8
351 352 350 329 315 350 39 48 27 3 331 322 325 338 22 100 98 23 33 46 41 49 87 121 164 168 212 278 272 314 335 344 351 334 325 328 330 335 18 22 352 333 336 350 23 31 24 17 331 273 273 336 324 301 311 321 318 314 317 322 323 326 327 326 327 325 322 323 325 326 327 326 324 321 319 321 327 327 317 311 315 324 340 20 47 51 47
351 357 3 360 349 18 96 9 328 321 320 321 328 47 59 52 60 41 30 7 351 14 64 118 233 38 201 251 272 320 334 338 359 359 341 333 323 320 2 38 2 319 321 318 320 340 2 59 67 268 260 286 307 308 317 324 320 318 328 331 330 333 334 333 334 334 332 331 331 333 333 328 322 323 332 347 359 4 3 15 42 57 61 63 62 56 49
356 3 7 9 22 155 289 313 315 312 313 341 106 113 7 20 62 50 12 339 324 9 78 232 250 184 192 243 283 296 250 292 341 356 348 350 352 336 340 7 44 348 338 350 32 350 338 8 51 330 291 301 325 333 336 332 323 320 329 327 325 331 334 333 335 337 334 328 326 326 325 320 319 331 0 24 26 27 35 46 54 58 61 59 55 52 48
2 7 9 15 338 310 313 320 325 318 190 96 43 6 33 41 18 20 39 24 354 279 213 245 223 195 210 253 288 276 194 240 317 333 319 291 44 16 335 323 8 357 325 304 336 353 337 326 353 351 337 335 338 339 338 333 328 328 331 330 332 336 337 336 341 344 341 334 332 334 340 350 5 23 36 41 39 38 43 46 47 52 56 54 50 48 44
354 355 340 302 304 310 317 329 358 82 114 39 18 33 55 18 346 83 88 45 304 256 231 191 233 225 210 212 239 254 225 165 76 31 316 294 340 18 316 322 355 346 269 264 286 48 51 4 319 317 323 327 329 331 333 335 337 336 332 334 341 343 341 343 353 1 2 356 351 359 17 34 44 44 42 47 50 49 47 46 47 51 53 51 48 48 43
327 316 301 292 294 302 313 337 23 50 38 56 56 8 349 346 325 326 333 287 259 266 225 192 230 275 197 182 211 243 257 114 101 98 258 294 338 53 344 353 9 332 243 269 330 55 71 308 269 288 318 324 324 327 331 335 336 330 324 330 341 343 345 355 9 17 20 19 20 29 42 48 49 45 45 52 55 52 49 49 50 49 47 46 46 47 45
325 314 298 289 293 302 320 344 6 51 56 55 52 6 338 340 21 357 312 255 235 289 279 228 262 301 276 194 216 240 253 304 23 93 227 284 337 61 45 31 30 308 301 32 48 44 23 246 259 314 330 328 321 313 317 324 324 317 316 332 346 347 355 15 26 28 31 37 44 51 54 55 53 52 54 59 62 59 56 54 53 51 47 44 43 44 47
332 330 338 330 315 331 347 331 354 104 82 18 101 129 243 304 317 263 309 313 288 279 302 326 311 294 280 253 350 291 243 285 50 84 249 290 39 62 32 287 268 300 342 17 9 319 283 246 249 278 304 311 311 308 310 319 322 315 318 343 357 358 10 30 38 36 37 45 53 56 57 57 57 55 55 56 60 61 60 56 52 49 47 45 43 41 43
347 358 24 9 334 331 59 356 343 23 193 208 167 155 171 190 215 234 248 243 253 285 319 339 295 273 268 247 94 277 285 28 35 267 267 30 37 285 241 238 326 24 30 10 323 300 269 266 280 290 292 296 303 310 312 317 321 319 323 348 4 9 22 39 47 45 41 46 52 54 53 55 60 60 57 55 55 59 59 54 47 42 43 45 42 37 36
44 81 55 34 328 320 97 176 302 340 177 188 185 170 176 213 257 264 269 261 267 287 308 318 296 280 280 276 117 11 4 43 232 240 101 96 226 240 223 226 15 47 54 2 301 261 246 271 297 297 292 291 295 302 309 316 324 330 336 349 5 21 38 50 54 52 48 54 62 62 59 62 68 68 62 56 52 55 56 53 48 45 44 43 39 32 32
85 91 74 81 299 303 322 178 215 245 235 223 218 208 212 277 282 269 264 258 261 276 295 299 278 263 267 268 199 242 24 44 267 255 175 163 229 316 30 6 301 176 149 231 249 242 249 275 280 271 275 285 291 299 314 329 336 334 333 341 10 39 54 60 59 52 49 58 69 70 67 67 71 72 69 61 53 53 54 52 50 49 48 47 43 39 39
133 99 79 99 234 250 236 230 269 272 248 228 247 263 263 296 282 273 261 241 245 274 289 291 264 225 226 30 242 248 304 68 243 251 204 121 317 355 16 350 291 239 197 208 224 233 248 266 268 269 276 284 286 292 309 330 336 329 327 351 32 51 64 71 68 59 52 56 63 68 70 70 68 69 72 66 55 50 51 52 54 55 54 53 51 48 47
134 114 131 192 220 222 212 236 296 296 269 230 260 279 243 243 269 278 274 238 242 257 258 248 225 228 235 102 94 239 243 184 208 240 34 58 219 213 123 268 271 258 225 215 222 240 249 246 254 273 279 278 280 291 302 313 318 311 311 339 31 57 76 83 83 78 68 60 57 56 59 66 69 70 70 65 58 57 62 65 67 66 62 60 57 53 51
169 177 208 209 228 251 243 215 279 287 287 289 284 269 248 258 275 274 240 214 262 289 261 201 197 216 220 54 48 296 249 221 171 148 195 217 184 150 160 230 238 227 212 213 223 235 246 248 250 273 277 274 271 283 295 299 294 284 284 288 83 94 92 94 97 94 87 81 79 74 68 64 63 67 70 73 77 79 76 73 71 70 70 70 68 63 58
189 237 241 224 227 237 246 278 282 278 282 287 284 271 249 263 273 258 203 198 301 319 282 223 177 101 104 174 195 236 241 188 126 134 246 234 170 145 185 232 235 225 226 239 241 240 249 252 236 247 269 275 262 259 270 278 275 268 259 239 189 142 120 117 115 111 105 101 98 93 86 81 84 92 100 105 101 90 78 68 67 72 77 76 74 71 68
198 216 241 240 226 221 232 261 275 265 260 266 270 254 228 244 252 223 179 214 273 281 253 195 129 114 178 210 199 172 141 144 142 213 250 231 192 186 209 230 237 232 235 247 252 249 249 245 227 222 236 254 260 261 264 266 264 259 248 232 211 192 174 155 140 132 123 113 108 106 106 110 121 126 123 113 100 87 72 58 63 77 83 83 79 77 76